Montpelier, VT

7:21 AM EDT on September 16, 2019 (GMT -0400)
Knapp State

Weather History for KMPV - August, 2019

Change the Weather History Date:

Sunday, August 25, 2019

  Actual Average Record
Temperature  
Mean Temperature 61 °F 64 °F  
Max Temperature 73 °F 76 °F 92 °F (1948)
Min Temperature 48 °F 53 °F 36 °F (1987)
Degree Days  
Heating Degree Days 4 3  
Month to date heating degree days 39 49  
Since 1 June heating degree days 192 210  
Since 1 July heating degree days 48 89  
Cooling Degree Days 0 2  
Month to date cooling degree days 46 66  
Year to date cooling degree days 204 234  
Since 1 June cooling degree days 203 224  
Growing Degree Days 11 (Base 50)    
Moisture  
Dew Point 51 °F    
Average Humidity 84    
Maximum Humidity 100    
Minimum Humidity 38    
Precipitation  
Precipitation 0.00 in 0.10 in 0.56 in (1982)
Month to date precipitation 3.91 3.40  
Year to date precipitation 34.46 24.19  
Sea Level Pressure  
Sea Level Pressure 30.39 in    
Wind  
Wind Speed 1 mph ()    
Max Wind Speed 9 mph    
Max Gust Speed 12 mph    
Visibility 5.7 miles    
Events Fog    
T = Trace of Precipitation, MM = Missing Value Source: Averaged Metar Reports

Daily Weather History Graph

Daily Weather History Graph

Search for Another Location

Airport or City:

Astronomy

Aug. 25, 2019 Rise Set
Actual Time 6:04 AM EDT 7:39 PM EDT
Civil Twilight 5:34 AM EDT 8:09 PM EDT
Nautical Twilight 4:57 AM EDT 8:46 PM EDT
Astronomical Twilight 4:17 AM EDT 9:25 PM EDT
Moon 12:31 AM EDT (8/25) 4:04 PM EDT (8/25)
Length of Visible Light 14h 34m
Length of Day
13h 34m
Waning Crescent, 29% of the Moon is Illuminated
Aug 25
Waning Crescent
Aug 30
New
Sep 5
First Quarter
Sep 14
Full
Sep 21
Last Quarter

Hourly Weather History & Observations

Time (EDT) Temp. Dew Point Humidity Pressure Visibility Wind Dir Wind Speed Gust Speed Precip Events Conditions
12:51 AM 52.0 °F 51.1 °F 97% 30.39 in 10.0 mi Calm Calm - N/A   Partly Cloudy
1:51 AM 52.0 °F 51.1 °F 97% 30.38 in 8.0 mi Calm Calm - N/A   Overcast
2:06 AM 51.1 °F 51.1 °F 100% 30.37 in 5.0 mi Calm Calm - N/A   Overcast
2:15 AM 51.1 °F 51.1 °F 100% 30.37 in 2.0 mi Calm Calm - N/A   Overcast
2:24 AM 51.1 °F 51.1 °F 100% 30.37 in 1.0 mi Calm Calm - N/A   Overcast
2:31 AM 52.0 °F 52.0 °F 100% 30.37 in 0.2 mi Calm Calm - N/A Fog Fog
2:51 AM 51.1 °F 51.1 °F 100% 30.38 in 0.2 mi Calm Calm - N/A Fog Fog
3:51 AM 51.1 °F 51.1 °F 100% 30.38 in 0.5 mi Calm Calm - N/A Fog Fog
4:51 AM 50.0 °F 50.0 °F 100% 30.39 in 1.0 mi Calm Calm - N/A   Mist
5:09 AM 51.1 °F 51.1 °F 100% 30.39 in 0.5 mi Calm Calm - N/A Fog Fog
5:51 AM 51.1 °F 51.1 °F 100% 30.40 in 0.2 mi Calm Calm - N/A Fog Fog
6:51 AM 51.1 °F 51.1 °F 100% 30.42 in 0.2 mi Calm Calm - N/A Fog Fog
7:51 AM 52.0 °F 52.0 °F 100% 30.44 in 0.5 mi Calm Calm - N/A Fog Fog
8:13 AM 53.1 °F 53.1 °F 100% 30.43 in 1.2 mi Calm Calm - N/A   Overcast
8:18 AM 53.1 °F 53.1 °F 100% 30.43 in 0.8 mi Calm Calm - N/A   Mist
8:51 AM 53.1 °F 53.1 °F 100% 30.44 in 0.5 mi Calm Calm - N/A Fog Fog
9:41 AM 55.0 °F 55.0 °F 100% 30.43 in 1.2 mi Calm Calm - N/A   Overcast
9:44 AM 55.0 °F 55.0 °F 100% 30.43 in 2.0 mi Calm Calm - N/A   Overcast
9:51 AM 55.9 °F 55.9 °F 100% 30.45 in 8.0 mi Calm Calm - N/A   Mostly Cloudy
10:05 AM 57.0 °F 55.9 °F 96% 30.43 in 10.0 mi Calm Calm - N/A   Scattered Clouds
10:51 AM 64.0 °F 53.1 °F 67% 30.44 in 10.0 mi Variable 3.5 mph - N/A   Clear
11:51 AM 66.9 °F 54.0 °F 63% 30.42 in 10.0 mi Variable 3.5 mph - N/A   Clear
12:51 PM 70.0 °F 53.1 °F 55% 30.39 in 10.0 mi ENE 6.9 mph - N/A   Partly Cloudy
1:51 PM 71.1 °F 50.0 °F 47% 30.38 in 10.0 mi SE 4.6 mph - N/A   Partly Cloudy
2:51 PM 73.0 °F 50.0 °F 44% 30.36 in 10.0 mi Variable 3.5 mph - N/A   Clear
3:51 PM 73.0 °F 46.9 °F 39% 30.35 in 10.0 mi Calm Calm - N/A   Clear
4:51 PM 72.0 °F 48.0 °F 43% 30.33 in 10.0 mi Calm Calm - N/A   Clear
5:51 PM 73.0 °F 48.0 °F 41% 30.32 in 10.0 mi SE 5.8 mph - N/A   Clear
6:51 PM 66.0 °F 53.1 °F 63% 30.32 in 10.0 mi South 4.6 mph - N/A   Clear
7:51 PM 61.0 °F 52.0 °F 72% 30.34 in 10.0 mi Calm Calm - N/A   Clear
8:51 PM 57.9 °F 45.0 °F 62% 30.36 in 10.0 mi Calm Calm - N/A   Clear
9:51 PM 54.0 °F 48.0 °F 80% 30.37 in 10.0 mi Calm Calm - N/A   Clear
10:51 PM 51.1 °F 46.0 °F 83% 30.37 in 10.0 mi South 4.6 mph - N/A   Clear
11:51 PM 48.9 °F 46.9 °F 93% 30.36 in 10.0 mi Calm Calm - N/A   Clear